Harlingen, TX

5:39 PM CDT on August 18, 2017 (GMT -0500)
Valley International

Weather History for KHRL - March, 2014

Change the Weather History Date:

Monday, March 31, 2014

  Actual Average Record
Temperature  
Mean Temperature 72 °F 72 °F  
Max Temperature 84 °F 83 °F 101 °F (1989)
Min Temperature 60 °F 61 °F 35 °F (1937)
Degree Days  
Heating Degree Days 0 1  
Month to date heating degree days 107 49  
Since 1 July heating degree days 918 614  
Cooling Degree Days 7 8  
Month to date cooling degree days 112 170  
Year to date cooling degree days 223 295  
Growing Degree Days 23 (Base 50)    
Moisture  
Dew Point 64 °F    
Average Humidity 72    
Maximum Humidity 93    
Minimum Humidity 51    
Precipitation  
Precipitation 0.00 in 0.04 in 0.60 in (1935)
Month to date precipitation 1.78 1.29  
Year to date precipitation 2.78 3.76  
Sea Level Pressure  
Sea Level Pressure 29.92 in    
Wind  
Wind Speed 15 mph (SSE)    
Max Wind Speed 28 mph    
Max Gust Speed 36 mph    
Visibility 10 miles    
Events      
T = Trace of Precipitation, MM = Missing Value Source: NWS Daily Summary

Daily Weather History Graph

Daily Weather History Graph

Search for Another Location

Airport or City:

Trip Planner

Search our weather history database for the weather conditions in past years. The results will help you decide how hot, cold, wet, or windy it might be!

Date:

Astronomy

Mar. 31, 2014 Rise Set
Actual Time 7:22 AM CDT 7:47 PM CDT
Civil Twilight 6:59 AM CDT 8:10 PM CDT
Nautical Twilight 6:32 AM CDT 8:37 PM CDT
Astronomical Twilight 6:05 AM CDT 9:04 PM CDT
Moon 7:53 AM CDT (3/31) 8:58 PM CDT (3/31)
Length of Visible Light 13h 10m
Length of Day
12h 24m
New Moon, 1% of the Moon is Illuminated
Mar 31
New Moon
Apr 7
First Quarter
Apr 15
Full
Apr 22
Last Quarter
Apr 29
New

Hourly Weather History & Observations

Time (CDT) Temp. Heat Index Dew Point Humidity Pressure Visibility Wind Dir Wind Speed Gust Speed Precip Events Conditions
12:52 AM 64.0 °F - 61.0 °F 90% 30.01 in 10.0 mi SE 9.2 mph - N/A   Clear
1:52 AM 64.9 °F - 62.1 °F 90% 29.98 in 10.0 mi SE 9.2 mph - N/A   Clear
2:52 AM 64.0 °F - 61.0 °F 90% 29.96 in 10.0 mi SE 8.1 mph - N/A   Clear
3:52 AM 63.0 °F - 61.0 °F 93% 29.94 in 10.0 mi SE 5.8 mph - N/A   Clear
4:52 AM 62.1 °F - 60.1 °F 93% 29.93 in 10.0 mi ESE 6.9 mph - N/A   Clear
5:52 AM 63.0 °F - 61.0 °F 93% 29.92 in 10.0 mi SE 9.2 mph - N/A   Clear
6:52 AM 64.0 °F - 62.1 °F 93% 29.91 in 10.0 mi SE 12.7 mph - N/A   Clear
7:52 AM 64.9 °F - 63.0 °F 93% 29.91 in 10.0 mi SSE 13.8 mph - N/A   Clear
8:52 AM 70.0 °F - 66.0 °F 87% 29.94 in 10.0 mi SSE 11.5 mph - N/A   Clear
9:16 AM 71.6 °F - 66.2 °F 83% 29.95 in 10.0 mi SSE 15.0 mph 23.0 mph N/A   Mostly Cloudy
9:52 AM 73.0 °F - 64.9 °F 76% 29.96 in 10.0 mi SSE 23.0 mph 27.6 mph N/A   Overcast
10:52 AM 77.0 °F - 64.0 °F 64% 29.97 in 10.0 mi SSE 23.0 mph 27.6 mph N/A   Mostly Cloudy
10:59 AM 78.8 °F - 64.4 °F 61% 29.96 in 10.0 mi SSE 23.0 mph - N/A   Mostly Cloudy
11:06 AM 77.0 °F - 64.4 °F 65% 29.96 in 10.0 mi South 18.4 mph 26.5 mph N/A   Mostly Cloudy
11:13 AM 77.0 °F - 64.4 °F 65% 29.96 in 10.0 mi SSE 19.6 mph 25.3 mph N/A   Scattered Clouds
11:52 AM 80.1 °F 81.7 °F 64.0 °F 58% 29.95 in 10.0 mi SSE 25.3 mph 35.7 mph N/A   Scattered Clouds
12:52 PM 81.0 °F 82.5 °F 64.0 °F 56% 29.93 in 10.0 mi SSE 21.9 mph 29.9 mph N/A   Scattered Clouds
1:52 PM 82.9 °F 84.4 °F 64.0 °F 53% 29.90 in 10.0 mi South 20.7 mph - N/A   Partly Cloudy
2:52 PM 84.0 °F 85.4 °F 64.0 °F 51% 29.88 in 10.0 mi SSE 21.9 mph 32.2 mph N/A   Clear
3:52 PM 82.9 °F 84.4 °F 64.0 °F 53% 29.86 in 10.0 mi SSE 19.6 mph 31.1 mph N/A   Clear
4:52 PM 82.9 °F 84.4 °F 64.0 °F 53% 29.84 in 10.0 mi South 20.7 mph 27.6 mph N/A   Clear
5:52 PM 80.1 °F 81.7 °F 64.0 °F 58% 29.83 in 10.0 mi SSE 20.7 mph 28.8 mph N/A   Clear
6:52 PM 78.1 °F - 64.9 °F 64% 29.84 in 10.0 mi SSE 20.7 mph 26.5 mph N/A   Clear
7:52 PM 73.9 °F - 64.9 °F 73% 29.86 in 10.0 mi SE 18.4 mph - N/A   Clear
8:52 PM 72.0 °F - 66.0 °F 81% 29.89 in 10.0 mi SSE 9.2 mph - N/A   Partly Cloudy
9:20 PM 71.6 °F - 66.2 °F 83% 29.90 in 10.0 mi SSE 9.2 mph - N/A   Mostly Cloudy
9:52 PM 72.0 °F - 66.9 °F 84% 29.92 in 10.0 mi SSE 8.1 mph - N/A   Mostly Cloudy
10:52 PM 72.0 °F - 68.0 °F 87% 29.92 in 10.0 mi SSE 12.7 mph - N/A   Mostly Cloudy
11:52 PM 71.1 °F - 68.0 °F 90% 29.93 in 10.0 mi SSE 6.9 mph - N/A   Mostly Cloudy